TimeCDT,TemperatureF,Dew PointF,Humidity,Sea Level PressureIn,VisibilityMPH,Wind Direction,Wind SpeedMPH,Gust SpeedMPH,PrecipitationIn,Events,Conditions,WindDirDegrees,DateUTC
12:53 AM,82.0,64.0,54,29.99,10.0,South,5.8,-,N/A,,Clear,190,2013-08-29 05:53:00
1:53 AM,82.0,64.0,54,29.99,10.0,SSW,6.9,-,N/A,,Clear,200,2013-08-29 06:53:00
2:53 AM,82.0,64.0,54,29.99,10.0,SSW,5.8,-,N/A,,Clear,210,2013-08-29 07:53:00
3:53 AM,82.0,64.0,54,29.99,10.0,SW,6.9,-,N/A,,Clear,230,2013-08-29 08:53:00
4:53 AM,79.0,64.0,60,29.99,10.0,SSW,6.9,-,N/A,,Clear,210,2013-08-29 09:53:00
5:53 AM,77.0,64.9,66,30.01,10.0,South,3.5,-,N/A,,Partly Cloudy,180,2013-08-29 10:53:00
6:53 AM,77.0,64.9,66,30.02,10.0,South,5.8,-,N/A,,Partly Cloudy,190,2013-08-29 11:53:00
7:53 AM,79.0,64.9,62,30.04,10.0,SSW,4.6,-,N/A,,Clear,210,2013-08-29 12:53:00
8:53 AM,84.9,64.9,51,30.04,10.0,WSW,10.4,-,N/A,,Clear,240,2013-08-29 13:53:00
9:53 AM,89.1,64.9,45,30.05,10.0,West,9.2,-,N/A,,Clear,260,2013-08-29 14:53:00
10:53 AM,93.0,64.9,39,30.05,10.0,SW,8.1,-,N/A,,Clear,230,2013-08-29 15:53:00
11:53 AM,93.9,63.0,36,30.04,10.0,SW,8.1,-,N/A,,Scattered Clouds,230,2013-08-29 16:53:00
12:53 PM,97.0,59.0,28,30.02,10.0,Variable,5.8,-,N/A,,Scattered Clouds,0,2013-08-29 17:53:00
1:53 PM,98.1,59.0,27,29.99,10.0,Variable,4.6,-,N/A,,Scattered Clouds,0,2013-08-29 18:53:00
2:53 PM,100.0,60.1,27,29.97,10.0,SSW,3.5,-,N/A,,Mostly Cloudy,200,2013-08-29 19:53:00
3:53 PM,100.0,59.0,26,29.95,10.0,Variable,5.8,-,N/A,,Mostly Cloudy,0,2013-08-29 20:53:00
4:53 PM,99.0,57.9,25,29.93,10.0,Calm,Calm,-,N/A,,Mostly Cloudy,0,2013-08-29 21:53:00
5:53 PM,100.0,57.9,25,29.92,10.0,Calm,Calm,-,N/A,,Scattered Clouds,0,2013-08-29 22:53:00
6:53 PM,99.0,59.0,26,29.92,10.0,NNE,5.8,-,N/A,,Partly Cloudy,30,2013-08-29 23:53:00
7:53 PM,95.0,59.0,30,29.92,10.0,East,4.6,-,N/A,,Partly Cloudy,100,2013-08-30 00:53:00
8:53 PM,91.9,60.1,34,29.93,10.0,East,5.8,-,N/A,,Partly Cloudy,100,2013-08-30 01:53:00
9:53 PM,89.1,61.0,39,29.94,10.0,Calm,Calm,-,N/A,,Clear,0,2013-08-30 02:53:00
10:53 PM,88.0,61.0,40,29.94,10.0,Variable,3.5,-,N/A,,Clear,0,2013-08-30 03:53:00
11:53 PM,87.1,62.1,43,29.94,10.0,SSE,3.5,-,N/A,,Clear,160,2013-08-30 04:53:00